FENGYUN 1C DEB, 38495

Orbit data source: Space-Track

FENGYUN 1C DEB, 38495 is space debris in SSO originally from a launch on Mon, 10 May 1999 UTC launched from the Taiyaun Space Center, China (TSC). Fengyun 1C debris stems from the Chinese weather satellite Fengyun-1C, which was intentionally destroyed by a Chinese anti-satellite missile in 2007. This event dramatically increased the amount of space debris, with thousands of trackable fragments posing hazards to satellites and human spaceflight. The Fengyun 1C debris cloud has become a focal point in discussions about space sustainability and the need for international regulations to prevent the creation of new debris.

Loading next visibility...
Identifier
38495, 1999-025ESE
Orbit
SSO
Country
Flag of CNCN / PRC
Related business
Manufacturer
Unknown
Mission
Spacecraft
Bus & Motor
Unknown
Mass
Unknown
Launch date (UTC)
1999-05-10 (27 years ago)
Launch vehicle
Unknown
Launch site
Taiyaun Space Center, China (TSC)
Object type
Payload
Rocket body
Debris
Shape & HBR
Unknown shape, 1.1 m
Radar Cross Section
Small (<0.1 m²)

Expand to show TLE details & history
Last TLE update: 4 months ago

TLE from 4 months ago
0 FENGYUN 1C DEB
1 38495U 99025ESE 25336.26437236  .00002759  00000-0  25866-2 0  9998
2 38495  99.1709 353.1036 0252581 165.9119 194.9245 13.69106573609697
Epoch: 2025-12-02T06:20Z
TLE epoch observation values (Epoch: 2025-12-02T06:20:41.771Z)
Latitude
-0.00005°
Longitude
-173.42245°
Altitude
1,186.087 km
Speed
7.171 km/s
True Right ascension
23h 32m 24s
True Declination
0° 00' 00"
Sunlit
Object was in daylight at epoch
Visualization orbit readout
Latitude
Unknown
Longitude
Unknown
Altitude
Unknown
Speed
Unknown
Apparent Right ascension
Unknown
Apparent Declination
Unknown
Sunlit
N/A
Visualization observer readout
Local Sidereal Time
15:55:07
Azimuth
Unknown
Elevation
Unknown
Doppler factor
Unknown
Orbital elements
Apogee altitude
1,186.385 km
Perigee altitude
813.668 km
Semi-major axis
7,378.164 km
Eccentricity
0.02526
Inclination
99.1709°
RAAN
353.1036°
Arg. of periapsis
165.9119°
True anomaly
194.20118°
Mean anomaly
194.9245°
Eccentric anomaly
194.56067°
Mean motion
3.42469 °/min
Orbital period
105.12 mins
BSTAR
0.0025866
Loading maneuver chart data...
Computing Atmospheric mass density...

Documentation

Showing up to 5 results
|